Year,Month,Day,Hour,Minute,Value (Times are PST for temperature in C)
2018,09,28,00,00,13.50
2018,09,28,00,01,13.50
2018,09,28,00,02,13.50
2018,09,28,00,03,13.50
2018,09,28,00,04,13.50
2018,09,28,00,05,13.40
2018,09,28,00,06,13.40
2018,09,28,00,07,13.40
2018,09,28,00,08,13.40
2018,09,28,00,09,13.40
2018,09,28,00,10,13.30
2018,09,28,00,11,13.30
2018,09,28,00,12,13.30
2018,09,28,00,13,13.30
2018,09,28,00,14,13.30
2018,09,28,00,15,13.30
2018,09,28,00,16,13.30
2018,09,28,00,17,13.30
2018,09,28,00,18,13.30
2018,09,28,00,19,13.30
2018,09,28,00,20,13.30
2018,09,28,00,21,13.30
2018,09,28,00,22,13.30
2018,09,28,00,23,13.30
2018,09,28,00,24,13.20
2018,09,28,00,25,13.20
2018,09,28,00,26,13.20
2018,09,28,00,27,13.30
2018,09,28,00,28,13.30
2018,09,28,00,29,13.30
2018,09,28,00,30,13.30
2018,09,28,00,31,13.30
2018,09,28,00,32,13.20
2018,09,28,00,33,13.20
2018,09,28,00,34,13.20
2018,09,28,00,35,13.20
2018,09,28,00,36,13.20
2018,09,28,00,37,13.10
2018,09,28,00,38,13.10
2018,09,28,00,39,13.10
2018,09,28,00,40,13.10
2018,09,28,00,41,13.10
2018,09,28,00,42,13.10
2018,09,28,00,43,13.00
2018,09,28,00,44,13.00
2018,09,28,00,45,13.00
2018,09,28,00,46,13.00
2018,09,28,00,47,13.00
2018,09,28,00,48,13.00
2018,09,28,00,49,13.00
2018,09,28,00,50,13.00
2018,09,28,00,51,12.90
2018,09,28,00,52,13.00
2018,09,28,00,53,13.00
2018,09,28,00,54,13.00
2018,09,28,00,55,13.00
2018,09,28,00,56,13.00
2018,09,28,00,57,12.90
2018,09,28,00,58,12.90
2018,09,28,00,59,13.00
2018,09,28,01,00,13.00
2018,09,28,01,01,13.00
2018,09,28,01,02,13.10
2018,09,28,01,03,13.10
2018,09,28,01,04,13.10
2018,09,28,01,05,13.10
2018,09,28,01,06,13.10
2018,09,28,01,07,13.10
2018,09,28,01,08,13.10
2018,09,28,01,09,13.20
2018,09,28,01,10,13.20
2018,09,28,01,11,13.30
2018,09,28,01,12,13.30
2018,09,28,01,13,13.30
2018,09,28,01,14,13.30
2018,09,28,01,15,13.30
2018,09,28,01,16,13.30
2018,09,28,01,17,13.30
2018,09,28,01,18,13.30
2018,09,28,01,19,13.30
2018,09,28,01,20,13.40
2018,09,28,01,21,13.40
2018,09,28,01,22,13.50
2018,09,28,01,23,13.60
2018,09,28,01,24,13.60
2018,09,28,01,25,13.70
2018,09,28,01,26,13.70
2018,09,28,01,27,13.80
2018,09,28,01,28,13.90
2018,09,28,01,29,13.90
2018,09,28,01,30,14.00
2018,09,28,01,31,14.00
2018,09,28,01,32,14.10
2018,09,28,01,33,14.10
2018,09,28,01,34,14.20
2018,09,28,01,35,14.20
2018,09,28,01,36,14.20
2018,09,28,01,37,14.30
2018,09,28,01,38,14.30
2018,09,28,01,39,14.30
2018,09,28,01,40,14.40
2018,09,28,01,41,14.40
2018,09,28,01,42,14.40
2018,09,28,01,43,14.40
2018,09,28,01,44,14.40
2018,09,28,01,45,14.40
2018,09,28,01,46,14.40
2018,09,28,01,47,14.40
2018,09,28,01,48,14.40
2018,09,28,01,49,14.40
2018,09,28,01,50,14.30
2018,09,28,01,51,14.30
2018,09,28,01,52,14.30
2018,09,28,01,53,14.30
2018,09,28,01,54,14.30
2018,09,28,01,55,14.20
2018,09,28,01,56,14.30
2018,09,28,01,57,14.30
2018,09,28,01,58,14.30
2018,09,28,01,59,14.30
2018,09,28,02,00,14.40
2018,09,28,02,01,14.40
2018,09,28,02,02,14.40
2018,09,28,02,03,14.40
2018,09,28,02,04,14.40
2018,09,28,02,05,14.40
2018,09,28,02,06,14.50
2018,09,28,02,07,14.50
2018,09,28,02,08,14.50
2018,09,28,02,09,14.50
2018,09,28,02,10,14.50
2018,09,28,02,11,14.50
2018,09,28,02,12,14.60
2018,09,28,02,13,14.60
2018,09,28,02,14,14.60
2018,09,28,02,15,14.70
2018,09,28,02,16,14.70
2018,09,28,02,17,14.70
2018,09,28,02,18,14.80
2018,09,28,02,19,14.80
2018,09,28,02,20,14.80
2018,09,28,02,21,14.80
2018,09,28,02,22,14.80
2018,09,28,02,23,14.80
2018,09,28,02,24,14.80
2018,09,28,02,25,14.80
2018,09,28,02,26,14.80
2018,09,28,02,27,14.80
2018,09,28,02,28,14.80
2018,09,28,02,29,14.80
2018,09,28,02,30,14.80
2018,09,28,02,31,14.80
2018,09,28,02,32,14.80
2018,09,28,02,33,14.80
2018,09,28,02,34,14.80
2018,09,28,02,35,14.90
2018,09,28,02,36,15.00
2018,09,28,02,37,15.10
2018,09,28,02,38,15.20
2018,09,28,02,39,15.20
2018,09,28,02,40,15.30
2018,09,28,02,41,15.30
2018,09,28,02,42,15.30
2018,09,28,02,43,15.30
2018,09,28,02,44,15.40
2018,09,28,02,45,15.40
2018,09,28,02,46,15.40
2018,09,28,02,47,15.40
2018,09,28,02,48,15.50
2018,09,28,02,49,15.50
2018,09,28,02,50,15.50
2018,09,28,02,51,15.50
2018,09,28,02,52,15.50
2018,09,28,02,53,15.50
2018,09,28,02,54,15.60
2018,09,28,02,55,15.60
2018,09,28,02,56,15.60
2018,09,28,02,57,15.70
2018,09,28,02,58,15.70
2018,09,28,02,59,15.80
2018,09,28,03,00,15.80
2018,09,28,03,01,15.80
2018,09,28,03,02,15.80
2018,09,28,03,03,15.80
2018,09,28,03,04,15.80
2018,09,28,03,05,15.80
2018,09,28,03,06,15.80
2018,09,28,03,07,15.80
2018,09,28,03,08,15.80
2018,09,28,03,09,15.80
2018,09,28,03,10,15.80
2018,09,28,03,11,15.80
2018,09,28,03,12,15.90
2018,09,28,03,13,15.90
2018,09,28,03,14,15.90
2018,09,28,03,15,15.90
2018,09,28,03,16,15.90
2018,09,28,03,17,15.90
2018,09,28,03,18,15.90
2018,09,28,03,19,15.90
2018,09,28,03,20,15.90
2018,09,28,03,21,15.90
2018,09,28,03,22,15.90
2018,09,28,03,23,15.90
2018,09,28,03,24,15.90
2018,09,28,03,25,15.80
2018,09,28,03,26,15.80
2018,09,28,03,27,15.80
2018,09,28,03,28,15.80
2018,09,28,03,29,15.80
2018,09,28,03,30,15.80
2018,09,28,03,31,15.80
2018,09,28,03,32,15.80
2018,09,28,03,33,15.80
2018,09,28,03,34,15.80
2018,09,28,03,35,15.70
2018,09,28,03,36,15.70
2018,09,28,03,37,15.70
2018,09,28,03,38,15.60
2018,09,28,03,39,15.60
2018,09,28,03,40,15.60
2018,09,28,03,41,15.60
2018,09,28,03,42,15.60
2018,09,28,03,43,15.60
2018,09,28,03,44,15.60
2018,09,28,03,45,15.60
2018,09,28,03,46,15.60
2018,09,28,03,47,15.50
2018,09,28,03,48,15.50
2018,09,28,03,49,15.60
2018,09,28,03,50,15.60
2018,09,28,03,51,15.60
2018,09,28,03,52,15.60
2018,09,28,03,53,15.70
2018,09,28,03,54,15.70
2018,09,28,03,55,15.70
2018,09,28,03,56,15.70
2018,09,28,03,57,15.70
2018,09,28,03,58,15.70
2018,09,28,03,59,15.70
2018,09,28,04,00,15.70
2018,09,28,04,01,15.70
2018,09,28,04,02,15.70
2018,09,28,04,03,15.70
2018,09,28,04,04,15.70
2018,09,28,04,05,15.70
2018,09,28,04,06,15.60
2018,09,28,04,07,15.60
2018,09,28,04,08,15.50
2018,09,28,04,09,15.50
2018,09,28,04,10,15.50
2018,09,28,04,11,15.50
2018,09,28,04,12,15.50
2018,09,28,04,13,15.50
2018,09,28,04,14,15.50
2018,09,28,04,15,15.50
2018,09,28,04,16,15.50
2018,09,28,04,17,15.50
2018,09,28,04,18,15.50
2018,09,28,04,19,15.50
2018,09,28,04,20,15.50
2018,09,28,04,21,15.50
2018,09,28,04,22,15.50
2018,09,28,04,23,15.40
2018,09,28,04,24,15.40
2018,09,28,04,25,15.40
2018,09,28,04,26,15.40
2018,09,28,04,27,15.40
2018,09,28,04,28,15.40
2018,09,28,04,29,15.40
2018,09,28,04,30,15.40
2018,09,28,04,31,15.40
2018,09,28,04,32,15.40
2018,09,28,04,33,15.30
2018,09,28,04,34,15.30
2018,09,28,04,35,15.30
2018,09,28,04,36,15.30
2018,09,28,04,37,15.40
2018,09,28,04,38,15.40
2018,09,28,04,39,15.40
2018,09,28,04,40,15.40
2018,09,28,04,41,15.40
2018,09,28,04,42,15.40
2018,09,28,04,43,15.40
2018,09,28,04,44,15.30
2018,09,28,04,45,15.30
2018,09,28,04,46,15.30
2018,09,28,04,47,15.40
2018,09,28,04,48,15.40
2018,09,28,04,49,15.40
2018,09,28,04,50,15.40
2018,09,28,04,51,15.30
2018,09,28,04,52,15.30
2018,09,28,04,53,15.30
2018,09,28,04,54,15.30
2018,09,28,04,55,15.30
2018,09,28,04,56,15.30
2018,09,28,04,57,15.30
2018,09,28,04,58,15.30
2018,09,28,04,59,15.30
2018,09,28,05,00,15.30
2018,09,28,05,01,15.30
2018,09,28,05,02,15.30
2018,09,28,05,03,15.30
2018,09,28,05,04,15.30
2018,09,28,05,05,15.30
2018,09,28,05,06,15.30
2018,09,28,05,07,15.30
2018,09,28,05,08,15.20
2018,09,28,05,09,15.20
2018,09,28,05,10,15.20
2018,09,28,05,11,15.10
2018,09,28,05,12,15.10
2018,09,28,05,13,15.10
2018,09,28,05,14,15.10
2018,09,28,05,15,15.10
2018,09,28,05,16,15.10
2018,09,28,05,17,15.10
2018,09,28,05,18,15.10
2018,09,28,05,19,15.10
2018,09,28,05,20,15.10
2018,09,28,05,21,15.10
2018,09,28,05,22,15.10
2018,09,28,05,23,15.10
2018,09,28,05,24,15.00
2018,09,28,05,25,15.00
2018,09,28,05,26,15.00
2018,09,28,05,27,15.00
2018,09,28,05,28,15.00
2018,09,28,05,29,15.00
2018,09,28,05,30,15.00
2018,09,28,05,31,15.00
2018,09,28,05,32,15.00
2018,09,28,05,33,15.00
2018,09,28,05,34,15.00
2018,09,28,05,35,15.00
2018,09,28,05,36,15.00
2018,09,28,05,37,15.00
2018,09,28,05,38,15.00
2018,09,28,05,39,15.00
2018,09,28,05,40,15.00
2018,09,28,05,41,15.00
2018,09,28,05,42,15.00
2018,09,28,05,43,15.00
2018,09,28,05,44,15.00
2018,09,28,05,45,15.00
2018,09,28,05,46,15.00
2018,09,28,05,47,15.00
2018,09,28,05,48,14.90
2018,09,28,05,49,14.90
2018,09,28,05,50,14.90
2018,09,28,05,51,14.90
2018,09,28,05,52,14.80
2018,09,28,05,53,14.80
2018,09,28,05,54,14.80
2018,09,28,05,55,14.80
2018,09,28,05,56,14.80
2018,09,28,05,57,14.80
2018,09,28,05,58,14.70
2018,09,28,05,59,14.70
2018,09,28,06,00,14.70
2018,09,28,06,01,14.60
2018,09,28,06,02,14.60
2018,09,28,06,03,14.50
2018,09,28,06,04,14.50
2018,09,28,06,05,14.40
2018,09,28,06,06,14.30
2018,09,28,06,07,14.20
2018,09,28,06,08,14.10
2018,09,28,06,09,14.10
2018,09,28,06,10,14.00
2018,09,28,06,11,14.00
2018,09,28,06,12,14.00
2018,09,28,06,13,13.90
2018,09,28,06,14,13.90
2018,09,28,06,15,13.90
2018,09,28,06,16,13.80
2018,09,28,06,17,13.80
2018,09,28,06,18,13.80
2018,09,28,06,19,13.80
2018,09,28,06,20,13.80
2018,09,28,06,21,13.80
2018,09,28,06,22,13.80
2018,09,28,06,23,13.70
2018,09,28,06,24,13.70
2018,09,28,06,25,13.70
2018,09,28,06,26,13.70
2018,09,28,06,27,13.70
2018,09,28,06,28,13.70
2018,09,28,06,29,13.70
2018,09,28,06,30,13.70
2018,09,28,06,31,13.70
2018,09,28,06,32,13.70
2018,09,28,06,33,13.70
2018,09,28,06,34,13.70
2018,09,28,06,35,13.70
2018,09,28,06,36,13.60
2018,09,28,06,37,13.60
2018,09,28,06,38,13.60
2018,09,28,06,39,13.60
2018,09,28,06,40,13.60
2018,09,28,06,41,13.60
2018,09,28,06,42,13.60
2018,09,28,06,43,13.60
2018,09,28,06,44,13.60
2018,09,28,06,45,13.60
2018,09,28,06,46,13.70
2018,09,28,06,47,13.70
2018,09,28,06,48,13.80
2018,09,28,06,49,13.80
2018,09,28,06,50,13.90
2018,09,28,06,51,14.00
2018,09,28,06,52,14.00
2018,09,28,06,53,14.10
2018,09,28,06,54,14.10
2018,09,28,06,55,14.10
2018,09,28,06,56,14.20
2018,09,28,06,57,14.20
2018,09,28,06,58,14.10
2018,09,28,06,59,14.10
2018,09,28,07,00,14.10
2018,09,28,07,01,14.10
2018,09,28,07,02,14.10
2018,09,28,07,03,14.10
2018,09,28,07,04,14.00
2018,09,28,07,05,14.00
2018,09,28,07,06,14.00
2018,09,28,07,07,14.00
2018,09,28,07,08,14.00
2018,09,28,07,09,14.00
2018,09,28,07,10,13.90
2018,09,28,07,11,13.90
2018,09,28,07,12,13.90
2018,09,28,07,13,13.90
2018,09,28,07,14,14.00
2018,09,28,07,15,14.00
2018,09,28,07,16,14.00
2018,09,28,07,17,14.10
2018,09,28,07,18,14.20
2018,09,28,07,19,14.20
2018,09,28,07,20,14.20
2018,09,28,07,21,14.30
2018,09,28,07,22,14.30
2018,09,28,07,23,14.30
2018,09,28,07,24,14.30
2018,09,28,07,25,14.30
2018,09,28,07,26,14.30
2018,09,28,07,27,14.30
2018,09,28,07,28,14.30
2018,09,28,07,29,14.30
2018,09,28,07,30,14.30
2018,09,28,07,31,14.40
2018,09,28,07,32,14.40
2018,09,28,07,33,14.40
2018,09,28,07,34,14.50
2018,09,28,07,35,14.50
2018,09,28,07,36,14.60
2018,09,28,07,37,14.60
2018,09,28,07,38,14.70
2018,09,28,07,39,14.70
2018,09,28,07,40,14.70
2018,09,28,07,41,14.80
2018,09,28,07,42,14.80
2018,09,28,07,43,14.80
2018,09,28,07,44,14.80
2018,09,28,07,45,14.80
2018,09,28,07,46,14.90
2018,09,28,07,47,14.90
2018,09,28,07,48,15.00
2018,09,28,07,49,15.00
2018,09,28,07,50,15.10
2018,09,28,07,51,15.20
2018,09,28,07,52,15.20
2018,09,28,07,53,15.20
2018,09,28,07,54,15.20
2018,09,28,07,55,15.30
2018,09,28,07,56,15.30
2018,09,28,07,57,15.30
2018,09,28,07,58,15.30
2018,09,28,07,59,15.30
2018,09,28,08,00,15.30
2018,09,28,08,01,15.30
2018,09,28,08,02,15.30
2018,09,28,08,03,15.30
2018,09,28,08,04,15.30
2018,09,28,08,05,15.40
2018,09,28,08,06,15.40
2018,09,28,08,07,15.40
2018,09,28,08,08,15.40
2018,09,28,08,09,15.40
2018,09,28,08,10,15.40
2018,09,28,08,11,15.40
2018,09,28,08,12,15.50
2018,09,28,08,13,15.50
2018,09,28,08,14,15.50
2018,09,28,08,15,15.60
2018,09,28,08,16,15.60
2018,09,28,08,17,15.70
2018,09,28,08,18,15.70
2018,09,28,08,19,15.80
2018,09,28,08,20,15.80
2018,09,28,08,21,15.80
2018,09,28,08,22,15.80
2018,09,28,08,23,15.80
2018,09,28,08,24,15.80
2018,09,28,08,25,15.80
2018,09,28,08,26,15.80
2018,09,28,08,27,15.80
2018,09,28,08,28,15.80
2018,09,28,08,29,15.80
2018,09,28,08,30,15.80
2018,09,28,08,31,15.90
2018,09,28,08,32,16.00
2018,09,28,08,33,16.10
2018,09,28,08,34,16.10
2018,09,28,08,35,16.20
2018,09,28,08,36,16.20
2018,09,28,08,37,16.20
2018,09,28,08,38,16.30
2018,09,28,08,39,16.30
2018,09,28,08,40,16.40
2018,09,28,08,41,16.40
2018,09,28,08,42,16.50
2018,09,28,08,43,16.60
2018,09,28,08,44,16.70
2018,09,28,08,45,16.90
2018,09,28,08,46,17.00
2018,09,28,08,47,17.10
2018,09,28,08,48,17.20
2018,09,28,08,49,17.30
2018,09,28,08,50,17.30
2018,09,28,08,51,17.40
2018,09,28,08,52,17.50
2018,09,28,08,53,17.60
2018,09,28,08,54,17.70
2018,09,28,08,55,17.80
2018,09,28,08,56,17.90
2018,09,28,08,57,17.90
2018,09,28,08,58,17.90
2018,09,28,08,59,18.00
2018,09,28,09,00,18.10
2018,09,28,09,01,18.10
2018,09,28,09,02,18.20
2018,09,28,09,03,18.20
2018,09,28,09,04,18.30
2018,09,28,09,05,18.30
2018,09,28,09,06,18.40
2018,09,28,09,07,18.40
2018,09,28,09,08,18.50
2018,09,28,09,09,18.60
2018,09,28,09,10,18.60
2018,09,28,09,11,18.70
2018,09,28,09,12,18.70
2018,09,28,09,13,18.70
2018,09,28,09,14,18.80
2018,09,28,09,15,18.90
2018,09,28,09,16,18.90
2018,09,28,09,17,18.90
2018,09,28,09,18,19.00
2018,09,28,09,19,19.10
2018,09,28,09,20,19.10
2018,09,28,09,21,19.10
2018,09,28,09,22,19.10
2018,09,28,09,23,19.10
2018,09,28,09,24,19.10
2018,09,28,09,25,19.10
2018,09,28,09,26,19.10
2018,09,28,09,27,19.10
2018,09,28,09,28,19.10
2018,09,28,09,29,19.20
2018,09,28,09,30,19.20
2018,09,28,09,31,19.30
2018,09,28,09,32,19.30
2018,09,28,09,33,19.40
2018,09,28,09,34,19.50
2018,09,28,09,35,19.50
2018,09,28,09,36,19.50
2018,09,28,09,37,19.50
2018,09,28,09,38,19.50
2018,09,28,09,39,19.50
2018,09,28,09,40,19.50
2018,09,28,09,41,19.60
2018,09,28,09,42,19.60
2018,09,28,09,43,19.70
2018,09,28,09,44,19.80
2018,09,28,09,45,19.80
2018,09,28,09,46,19.80
2018,09,28,09,47,19.90
2018,09,28,09,48,19.90
2018,09,28,09,49,19.90
2018,09,28,09,50,19.90
2018,09,28,09,51,19.90
2018,09,28,09,52,19.90
2018,09,28,09,53,19.90
2018,09,28,09,54,19.90
2018,09,28,09,55,19.90
2018,09,28,09,56,19.90
2018,09,28,09,57,19.90
2018,09,28,09,58,19.90
2018,09,28,09,59,19.90
2018,09,28,10,00,19.90
2018,09,28,10,01,19.90
2018,09,28,10,02,19.90
2018,09,28,10,03,19.90
2018,09,28,10,04,20.00
2018,09,28,10,05,20.10
2018,09,28,10,06,20.10
2018,09,28,10,07,20.10
2018,09,28,10,08,20.20
2018,09,28,10,09,20.20
2018,09,28,10,10,20.10
2018,09,28,10,11,20.10
2018,09,28,10,12,20.10
2018,09,28,10,13,20.10
2018,09,28,10,14,20.10
2018,09,28,10,15,20.00
2018,09,28,10,16,19.90
2018,09,28,10,17,20.00
2018,09,28,10,18,20.10
2018,09,28,10,19,20.10
2018,09,28,10,20,20.10
2018,09,28,10,21,20.10
2018,09,28,10,22,20.10
2018,09,28,10,23,20.10
2018,09,28,10,24,20.10
2018,09,28,10,25,20.20
2018,09,28,10,26,20.20
2018,09,28,10,27,20.20
2018,09,28,10,28,20.20
2018,09,28,10,29,20.20
2018,09,28,10,30,20.20
2018,09,28,10,31,20.20
2018,09,28,10,32,20.30
2018,09,28,10,33,20.30
2018,09,28,10,34,20.30
2018,09,28,10,35,20.40
2018,09,28,10,36,20.40
2018,09,28,10,37,20.40
2018,09,28,10,38,20.40
2018,09,28,10,39,20.40
2018,09,28,10,40,20.40
2018,09,28,10,41,20.40
2018,09,28,10,42,20.50
2018,09,28,10,43,20.50
2018,09,28,10,44,20.60
2018,09,28,10,45,20.60
2018,09,28,10,46,20.70
2018,09,28,10,47,20.70
2018,09,28,10,48,20.70
2018,09,28,10,49,20.80
2018,09,28,10,50,20.80
2018,09,28,10,51,20.80
2018,09,28,10,52,20.80
2018,09,28,10,53,20.80
2018,09,28,10,54,20.90
2018,09,28,10,55,20.80
2018,09,28,10,56,20.80
2018,09,28,10,57,20.80
2018,09,28,10,58,20.80
2018,09,28,10,59,20.80
2018,09,28,11,00,20.80
2018,09,28,11,01,20.80
2018,09,28,11,02,20.80
2018,09,28,11,03,20.70
2018,09,28,11,04,20.70
2018,09,28,11,05,20.70
2018,09,28,11,06,20.60
2018,09,28,11,07,20.60
2018,09,28,11,08,20.60
2018,09,28,11,09,20.60
2018,09,28,11,10,20.70
2018,09,28,11,11,20.70
2018,09,28,11,12,20.80
2018,09,28,11,13,20.90
2018,09,28,11,14,20.90
2018,09,28,11,15,21.00
2018,09,28,11,16,21.00
2018,09,28,11,17,21.00
2018,09,28,11,18,20.90
2018,09,28,11,19,20.90
2018,09,28,11,20,20.90
2018,09,28,11,21,20.90
2018,09,28,11,22,20.90
2018,09,28,11,23,20.90
2018,09,28,11,24,20.90
2018,09,28,11,25,21.00
2018,09,28,11,26,21.00
2018,09,28,11,27,21.10
2018,09,28,11,28,21.10
2018,09,28,11,29,21.10
2018,09,28,11,30,21.20
2018,09,28,11,31,21.20
2018,09,28,11,32,21.20
2018,09,28,11,33,21.30
2018,09,28,11,34,21.30
2018,09,28,11,35,21.30
2018,09,28,11,36,21.30
2018,09,28,11,37,21.30
2018,09,28,11,38,21.40
2018,09,28,11,39,21.40
2018,09,28,11,40,21.40
2018,09,28,11,41,21.40
2018,09,28,11,42,21.40
2018,09,28,11,43,21.30
2018,09,28,11,44,21.30
2018,09,28,11,45,21.30
2018,09,28,11,46,21.30
2018,09,28,11,47,21.30
2018,09,28,11,48,21.30
2018,09,28,11,49,21.30
2018,09,28,11,50,21.30
2018,09,28,11,51,21.20
2018,09,28,11,52,21.20
2018,09,28,11,53,21.20
2018,09,28,11,54,21.20
2018,09,28,11,55,21.20
2018,09,28,11,56,21.20
2018,09,28,11,57,21.30
2018,09,28,11,58,21.30
2018,09,28,11,59,21.40
2018,09,28,12,00,21.40
2018,09,28,12,01,21.60
2018,09,28,12,02,21.60
2018,09,28,12,03,21.60
2018,09,28,12,04,21.60
2018,09,28,12,05,21.60
2018,09,28,12,06,21.60
2018,09,28,12,07,21.70
2018,09,28,12,08,21.70
2018,09,28,12,09,21.80
2018,09,28,12,10,21.80
2018,09,28,12,11,21.80
2018,09,28,12,12,21.80
2018,09,28,12,13,21.80
2018,09,28,12,14,21.80
2018,09,28,12,15,21.70
2018,09,28,12,16,21.70
2018,09,28,12,17,21.60
2018,09,28,12,18,21.60
2018,09,28,12,19,21.60
2018,09,28,12,20,21.60
2018,09,28,12,21,21.60
2018,09,28,12,22,21.60
2018,09,28,12,23,21.70
2018,09,28,12,24,21.70
2018,09,28,12,25,21.70
2018,09,28,12,26,21.70
2018,09,28,12,27,21.70
2018,09,28,12,28,21.70
2018,09,28,12,29,21.70
2018,09,28,12,30,21.80
2018,09,28,12,31,21.80
2018,09,28,12,32,21.80
2018,09,28,12,33,21.90
2018,09,28,12,34,22.00
2018,09,28,12,35,22.10
2018,09,28,12,36,22.10
2018,09,28,12,37,22.10
2018,09,28,12,38,22.10
2018,09,28,12,39,22.10
2018,09,28,12,40,22.10
2018,09,28,12,41,22.10
2018,09,28,12,42,22.00
2018,09,28,12,43,22.00
2018,09,28,12,44,22.00
2018,09,28,12,45,22.00
2018,09,28,12,46,21.90
2018,09,28,12,47,21.90
2018,09,28,12,48,21.90
2018,09,28,12,49,21.80
2018,09,28,12,50,21.80
2018,09,28,12,51,21.80
2018,09,28,12,52,21.90
2018,09,28,12,53,21.90
2018,09,28,12,54,21.90
2018,09,28,12,55,22.00
2018,09,28,12,56,22.00
2018,09,28,12,57,22.10
2018,09,28,12,58,22.10
2018,09,28,12,59,22.10
2018,09,28,13,00,22.20
2018,09,28,13,01,22.30
2018,09,28,13,02,22.30
2018,09,28,13,03,22.40
2018,09,28,13,04,22.50
2018,09,28,13,05,22.50
2018,09,28,13,06,22.50
2018,09,28,13,07,22.50
2018,09,28,13,08,22.50
2018,09,28,13,09,22.50
2018,09,28,13,10,22.50
2018,09,28,13,11,22.40
2018,09,28,13,12,22.40
2018,09,28,13,13,22.40
2018,09,28,13,14,22.40
2018,09,28,13,15,22.40
2018,09,28,13,16,22.50
2018,09,28,13,17,22.40
2018,09,28,13,18,22.30
2018,09,28,13,19,22.30
2018,09,28,13,20,22.30
2018,09,28,13,21,22.40
2018,09,28,13,22,22.40
2018,09,28,13,23,22.40
2018,09,28,13,24,22.40
2018,09,28,13,25,22.40
2018,09,28,13,26,22.40
2018,09,28,13,27,22.40
2018,09,28,13,28,22.50
2018,09,28,13,29,22.50
2018,09,28,13,30,22.50
2018,09,28,13,31,22.50
2018,09,28,13,32,22.60
2018,09,28,13,33,22.60
2018,09,28,13,34,22.60
2018,09,28,13,35,22.60
2018,09,28,13,36,22.60
2018,09,28,13,37,22.60
2018,09,28,13,38,22.60
2018,09,28,13,39,22.50
2018,09,28,13,40,22.50
2018,09,28,13,41,22.50
2018,09,28,13,42,22.50
2018,09,28,13,43,22.40
2018,09,28,13,44,22.40
2018,09,28,13,45,22.40
2018,09,28,13,46,22.40
2018,09,28,13,47,22.40
2018,09,28,13,48,22.40
2018,09,28,13,49,22.40
2018,09,28,13,50,22.30
2018,09,28,13,51,22.30
2018,09,28,13,52,22.40
2018,09,28,13,53,22.40
2018,09,28,13,54,22.40
2018,09,28,13,55,22.50
2018,09,28,13,56,22.60
2018,09,28,13,57,22.60
2018,09,28,13,58,22.60
2018,09,28,13,59,22.60
2018,09,28,14,00,22.60
2018,09,28,14,01,22.70
2018,09,28,14,02,22.60
2018,09,28,14,03,22.50
2018,09,28,14,04,22.40
2018,09,28,14,05,22.40
2018,09,28,14,06,22.40
2018,09,28,14,07,22.40
2018,09,28,14,08,22.30
2018,09,28,14,09,22.30
2018,09,28,14,10,22.30
2018,09,28,14,11,22.30
2018,09,28,14,12,22.40
2018,09,28,14,13,22.50
2018,09,28,14,14,22.50
2018,09,28,14,15,22.60
2018,09,28,14,16,22.70
2018,09,28,14,17,22.80
2018,09,28,14,18,22.80
2018,09,28,14,19,22.90
2018,09,28,14,20,22.90
2018,09,28,14,21,22.90
2018,09,28,14,22,22.90
2018,09,28,14,23,22.90
2018,09,28,14,24,22.90
2018,09,28,14,25,22.90
2018,09,28,14,26,22.90
2018,09,28,14,27,22.80
2018,09,28,14,28,22.70
2018,09,28,14,29,22.70
2018,09,28,14,30,22.80
2018,09,28,14,31,22.80
2018,09,28,14,32,22.90
2018,09,28,14,33,22.90
2018,09,28,14,34,23.00
2018,09,28,14,35,23.10
2018,09,28,14,36,23.10
2018,09,28,14,37,23.20
2018,09,28,14,38,23.20
2018,09,28,14,39,23.20
2018,09,28,14,40,23.10
2018,09,28,14,41,23.00
2018,09,28,14,42,22.90
2018,09,28,14,43,22.90
2018,09,28,14,44,22.90
2018,09,28,14,45,22.90
2018,09,28,14,46,22.90
2018,09,28,14,47,22.90
2018,09,28,14,48,22.90
2018,09,28,14,49,23.00
2018,09,28,14,50,23.10
2018,09,28,14,51,23.10
2018,09,28,14,52,23.10
2018,09,28,14,53,23.10
2018,09,28,14,54,23.00
2018,09,28,14,55,22.90
2018,09,28,14,56,22.90
2018,09,28,14,57,22.90
2018,09,28,14,58,23.00
2018,09,28,14,59,23.10
2018,09,28,15,00,23.10
2018,09,28,15,01,23.20
2018,09,28,15,02,23.20
2018,09,28,15,03,23.20
2018,09,28,15,04,23.10
2018,09,28,15,05,23.10
2018,09,28,15,06,23.10
2018,09,28,15,07,23.10
2018,09,28,15,08,23.10
2018,09,28,15,09,23.20
2018,09,28,15,10,23.20
2018,09,28,15,11,23.20
2018,09,28,15,12,23.30
2018,09,28,15,13,23.30
2018,09,28,15,14,23.20
2018,09,28,15,15,23.20
2018,09,28,15,16,23.30
2018,09,28,15,17,23.30
2018,09,28,15,18,23.30
2018,09,28,15,19,23.30
2018,09,28,15,20,23.30
2018,09,28,15,21,23.30
2018,09,28,15,22,23.30
2018,09,28,15,23,23.30
2018,09,28,15,24,23.30
2018,09,28,15,25,23.30
2018,09,28,15,26,23.30
2018,09,28,15,27,23.30
2018,09,28,15,28,23.30
2018,09,28,15,29,23.30
2018,09,28,15,30,23.10
2018,09,28,15,31,23.00
2018,09,28,15,32,22.90
2018,09,28,15,33,22.90
2018,09,28,15,34,22.80
2018,09,28,15,35,22.80
2018,09,28,15,36,22.80
2018,09,28,15,37,22.80
2018,09,28,15,38,22.90
2018,09,28,15,39,22.90
2018,09,28,15,40,22.90
2018,09,28,15,41,22.90
2018,09,28,15,42,22.90
2018,09,28,15,43,22.90
2018,09,28,15,44,22.90
2018,09,28,15,45,23.00
2018,09,28,15,46,23.10
2018,09,28,15,47,23.20
2018,09,28,15,48,23.30
2018,09,28,15,49,23.30
2018,09,28,15,50,23.40
2018,09,28,15,51,23.50
2018,09,28,15,52,23.60
2018,09,28,15,53,23.70
2018,09,28,15,54,23.70
2018,09,28,15,55,23.70
2018,09,28,15,56,23.70
2018,09,28,15,57,23.70
2018,09,28,15,58,23.70
2018,09,28,15,59,23.70
2018,09,28,16,00,23.70
2018,09,28,16,01,23.70
2018,09,28,16,02,23.70
2018,09,28,16,03,23.80
2018,09,28,16,04,23.80
2018,09,28,16,05,23.70
2018,09,28,16,06,23.70
2018,09,28,16,07,23.70
2018,09,28,16,08,23.80
2018,09,28,16,09,23.80
2018,09,28,16,10,23.90
2018,09,28,16,11,23.80
2018,09,28,16,12,23.80
2018,09,28,16,13,23.80
2018,09,28,16,14,23.90
2018,09,28,16,15,23.90
2018,09,28,16,16,23.90
2018,09,28,16,17,23.90
2018,09,28,16,18,24.00
2018,09,28,16,19,24.10
2018,09,28,16,20,24.10
2018,09,28,16,21,24.10
2018,09,28,16,22,24.10
2018,09,28,16,23,24.10
2018,09,28,16,24,24.10
2018,09,28,16,25,24.10
2018,09,28,16,26,24.00
2018,09,28,16,27,23.90
2018,09,28,16,28,23.80
2018,09,28,16,29,23.70
2018,09,28,16,30,23.70
2018,09,28,16,31,23.60
2018,09,28,16,32,23.60
2018,09,28,16,33,23.60
2018,09,28,16,34,23.60
2018,09,28,16,35,23.70
2018,09,28,16,36,23.60
2018,09,28,16,37,23.50
2018,09,28,16,38,23.40
2018,09,28,16,39,23.40
2018,09,28,16,40,23.40
2018,09,28,16,41,23.40
2018,09,28,16,42,23.40
2018,09,28,16,43,23.40
2018,09,28,16,44,23.40
2018,09,28,16,45,23.30
2018,09,28,16,46,23.30
2018,09,28,16,47,23.30
2018,09,28,16,48,23.30
2018,09,28,16,49,23.30
2018,09,28,16,50,23.30
2018,09,28,16,51,23.20
2018,09,28,16,52,23.20
2018,09,28,16,53,23.10
2018,09,28,16,54,23.00
2018,09,28,16,55,22.90
2018,09,28,16,56,22.90
2018,09,28,16,57,22.90
2018,09,28,16,58,22.90
2018,09,28,16,59,22.90
2018,09,28,17,00,22.90
2018,09,28,17,01,22.90
2018,09,28,17,02,22.90
2018,09,28,17,03,22.90
2018,09,28,17,04,22.90
2018,09,28,17,05,22.90
2018,09,28,17,06,22.90
2018,09,28,17,07,22.90
2018,09,28,17,08,22.90
2018,09,28,17,09,22.90
2018,09,28,17,10,22.80
2018,09,28,17,11,22.80
2018,09,28,17,12,22.90
2018,09,28,17,13,22.90
2018,09,28,17,14,22.90
2018,09,28,17,15,22.90
2018,09,28,17,16,22.90
2018,09,28,17,17,22.90
2018,09,28,17,18,23.00
2018,09,28,17,19,23.10